[[{"header":{"parameterUnit":"m.s-1","parameterCategory":1,"la1":30.2991,"la2":30.254,"lo1":-89.0895,"lo2":-89.0444,"dy":0.0017,"dx":0.0017,"nx":28,"ny":28,"refTime":"2025-11-10T03:00:00:Z","depth":0,"parameterNumber":2,"parameterNumberName":"U-component_of_WINDS"},"data":[0,0,0,0,0,0,0,0,0,0,0,0,0,0,0,0,0,0,0,0,0,0,0,0,0,0,0,0,0,0,0,0,0,0,0,0,0,0,0,0,0,0,0,0,0,0,0,0,0,0,0,0,0,0,0,0,0,0,0.4463,0.4464,0,0.4521,0.4522,0.4523,0.4566,0.4567,0.4567,0.4568,0.4627,0.4628,0.463,0,0,0,0,0,0,0,0,0,0,0,0,0,0.439,0.4391,0.4463,0.4464,0.4465,0.4521,0.4522,0.4523,0.4566,0.4567,0.4567,0.4568,0.4627,0.4628,0.463,0,0,0,0,0,0,0,0,0,0,0,0,0,0.4432,0.4391,0.4463,0.4493,0.4496,0.4521,0.4522,0.4523,0.4566,0.4567,0.4567,0.4568,0.4626,0.4628,0.463,0.4629,0,0,0.4635,0.4636,0,0,0,0,0,0,0,0,0.443,0.4435,0.4488,0.4491,0.4495,0.4537,0.4518,0.4559,0.4566,0.454,0.4568,0.4568,0.4597,0.4601,0.4611,0.4632,0.4634,0.4636,0.4637,0.4637,0.4638,0,0,0,0,0,0,0,0.4427,0.4432,0.4486,0.4489,0.4493,0.4504,0.451,0.4526,0.4564,0.4542,0.4545,0.4552,0.4599,0.4609,0.4612,0.4635,0.4636,0.4637,0.4638,0.4639,0.4658,0.4657,0,0,0,0,0,0,0.4419,0.443,0.4484,0.4488,0.4463,0.4505,0.4512,0.4523,0.4564,0.4571,0.4551,0.4554,0.4605,0.461,0.4615,0.4616,0.4637,0.4639,0.464,0.4659,0.4658,0.4657,0,0,0,0,0,0,0.4417,0.4423,0.4482,0.446,0.4468,0.4505,0.4517,0.4524,0.4534,0.4571,0.4578,0.4554,0.4606,0.4612,0.4625,0.4618,0.464,0.4642,0.4659,0.4658,0.4658,0.4618,0,0,0,0,0,0,0.4415,0.4423,0.4423,0.4459,0.4469,0.4491,0.4517,0.4525,0.4537,0.4541,0.4576,0.4582,0.4607,0.4622,0.4627,0.4621,0.4643,0.466,0.4659,0.4658,0.462,0.4616,0.4613,0,0,0,0,0,0.4412,0.441,0.4422,0.4429,0.447,0.4491,0.4496,0.4525,0.4536,0.4537,0.456,0.4581,0.4618,0.4623,0.4629,0.4624,0.4661,0.4659,0.4658,0.4622,0.4617,0.4613,0,0,0,0,0,0,0.4371,0.4415,0.443,0.4439,0.4461,0.4498,0.45,0.4519,0.4538,0.454,0.4575,0.4583,0.4592,0.4609,0.4613,0.4625,0.4642,0.4642,0.4613,0.4608,0.4605,0.46,0.4645,0,0,0,0,0,0.4363,0.4377,0.4414,0.4419,0.4429,0.4462,0.4472,0.4492,0.4516,0.4526,0.4551,0.4573,0.459,0.46,0.4618,0.4623,0.4631,0.4623,0.4619,0.4615,0.4615,0.4618,0.4614,0.4653,0.4653,0.4653,0,0,0.4347,0.4373,0.4379,0.4411,0.443,0.4443,0.447,0.4482,0.4492,0.4528,0.4541,0.456,0.4587,0.4596,0.4601,0.4611,0.4606,0.4614,0.4611,0.4612,0.4616,0.4612,0.4609,0.4652,0.4652,0.4652,0,0,0.4324,0.4345,0.435,0.4369,0.4398,0.442,0.4421,0.4456,0.4469,0.4483,0.451,0.4522,0.4551,0.4569,0.4582,0.4565,0.4584,0.4569,0.4549,0.4552,0.4549,0.4546,0.454,0.4537,0.4569,0.4569,0.4569,0,0.43,0.432,0.4351,0.4362,0.4375,0.4408,0.4413,0.443,0.4463,0.4471,0.4481,0.4517,0.4538,0.4551,0.4547,0.4556,0.4559,0.4565,0.4547,0.4545,0.4543,0.4537,0.4534,0.4567,0.4567,0.4567,0.4567,0,0.4289,0.4303,0.4304,0.4335,0.4348,0.4356,0.4388,0.4397,0.4416,0.4437,0.445,0.4476,0.4499,0.4504,0.4523,0.452,0.4525,0.454,0.4559,0.4537,0.4531,0.4529,0.4564,0.4564,0.4565,0.4565,0,0,0.4242,0.4289,0.4289,0.4303,0.4337,0.4348,0.4357,0.438,0.4387,0.4408,0.4417,0.444,0.4454,0.4469,0.449,0.4492,0.4476,0.4508,0.4509,0.4501,0.4474,0.4461,0.4458,0.449,0.4489,0.4489,0.4471,0,0.4223,0.4242,0.427,0.4279,0.4292,0.4323,0.4331,0.4352,0.4372,0.4386,0.4407,0.4423,0.4441,0.445,0.4454,0.4477,0.4471,0.4479,0.4497,0.4497,0.4489,0.4455,0.4442,0.4424,0.4469,0.4469,0.4469,0,0.4204,0.4224,0.4234,0.4267,0.4273,0.428,0.4302,0.4315,0.434,0.4354,0.4369,0.4392,0.4403,0.442,0.4435,0.444,0.4449,0.4461,0.4461,0.4464,0.4481,0.4456,0.4419,0.4416,0.4466,0.4466,0.4466,0,0.4168,0.4197,0.4207,0.4218,0.4256,0.426,0.4276,0.4301,0.4313,0.4332,0.434,0.436,0.4372,0.4387,0.4414,0.4424,0.4426,0.4445,0.4438,0.4437,0.4437,0.4436,0.44,0.4443,0.4443,0.4443,0.4443,0,0.4144,0.4149,0.4191,0.4197,0.4203,0.4235,0.424,0.4259,0.4281,0.4291,0.432,0.4328,0.4364,0.4377,0.4398,0.4407,0.4412,0.4424,0.4429,0.4421,0.4419,0.4427,0.4428,0.4443,0.4443,0.4443,0.4443,0,0.4104,0.4132,0.4145,0.418,0.4189,0.4192,0.4222,0.4228,0.425,0.4262,0.4266,0.43,0.4316,0.4345,0.437,0.4384,0.4389,0.4399,0.438,0.4383,0.4374,0.4374,0.4341,0.4337,0.4383,0.4383,0.4382,0,0.4087,0.4091,0.4127,0.4135,0.415,0.4164,0.4176,0.4207,0.4217,0.4246,0.4249,0.4267,0.4284,0.4309,0.4335,0.4354,0.4364,0.4351,0.4367,0.4358,0.4363,0.4362,0.4362,0.4347,0.4346,0.4346,0.4345,0,0.4053,0.4066,0.4082,0.4102,0.4115,0.4133,0.4152,0.4158,0.4193,0.4204,0.4221,0.4233,0.4258,0.4276,0.4299,0.4315,0.4336,0.434,0.4339,0.433,0.4319,0.4324,0.4369,0.4341,0.4341,0.4341,0.4342,0.4342,0.4023,0.4028,0.4054,0.407,0.4088,0.4105,0.4112,0.4134,0.4149,0.4172,0.4189,0.4205,0.4229,0.4261,0.4276,0.4289,0.4298,0.4297,0.4297,0.4296,0.4292,0.4317,0.4293,0.4293,0.4293,0.4294,0.4294,0,0.399,0.4008,0.4022,0.4048,0.4061,0.4079,0.4101,0.411,0.4124,0.4144,0.416,0.4179,0.4196,0.4224,0.4243,0.4247,0.4257,0.4251,0.4251,0.4254,0.4283,0.4281,0.4243,0.4243,0.4243,0.4243,0.4243,0.4243,0.3974,0.3983,0.4,0.4018,0.4036,0.4051,0.4062,0.4078,0.4094,0.4114,0.4129,0.4147,0.417,0.4191,0.4207,0.4215,0.422,0.4211,0.4222,0.4248,0.4252,0.4257,0.4256,0.4212,0.4212,0.4192,0.4192,0.4192]},{"header":{"parameterUnit":"m.s-1","parameterCategory":1,"la1":30.2991,"la2":30.254,"lo1":-89.0895,"lo2":-89.0444,"dy":0.0017,"dx":0.0017,"nx":28,"ny":28,"refTime":"2025-11-10T03:00:00:Z","depth":0,"parameterNumber":3,"parameterNumberName":"V-component_of_WINDS"},"data":[0,0,0,0,0,0,0,0,0,0,0,0,0,0,0,0,0,0,0,0,0,0,0,0,0,0,0,0,0,0,0,0,0,0,0,0,0,0,0,0,0,0,0,0,0,0,0,0,0,0,0,0,0,0,0,0,0,0,2.3047,2.3047,0,2.2993,2.2993,2.2992,2.299,2.299,2.2991,2.2992,2.2933,2.293,2.2928,0,0,0,0,0,0,0,0,0,0,0,0,0,2.3144,2.3142,2.3047,2.3047,2.3046,2.2994,2.2993,2.2992,2.299,2.299,2.2991,2.2992,2.2933,2.2931,2.2928,0,0,0,0,0,0,0,0,0,0,0,0,0,2.3097,2.3142,2.3047,2.3038,2.3037,2.2994,2.2993,2.2992,2.2989,2.299,2.2991,2.2992,2.2934,2.2931,2.2928,2.2888,0,0,2.2918,2.2916,0,0,0,0,0,0,0,0,2.31,2.3094,2.304,2.3039,2.3037,2.2999,2.3005,2.2957,2.2989,2.3007,2.2992,2.2993,2.2954,2.2949,2.2937,2.2886,2.2883,2.2917,2.2915,2.2914,2.2913,0,0,0,0,0,0,0,2.3103,2.3096,2.3026,2.304,2.3038,2.3036,2.303,2.2996,2.2976,2.3006,2.3006,2.3,2.2953,2.294,2.2935,2.2882,2.2918,2.2915,2.2913,2.2911,2.2796,2.2795,0,0,0,0,0,0,2.3109,2.3099,2.3028,2.3024,2.3072,2.3033,2.3027,2.3011,2.2976,2.2972,2.2999,2.3,2.2945,2.2939,2.2933,2.2884,2.2914,2.2911,2.2909,2.2797,2.2796,2.2794,0,0,0,0,0,0,2.3111,2.3102,2.303,2.3061,2.3052,2.3031,2.3012,2.3009,2.2996,2.2971,2.2967,2.2989,2.2945,2.2938,2.29,2.2882,2.291,2.2907,2.2798,2.2796,2.2795,2.2787,0,0,0,0,0,0,2.3114,2.3103,2.3089,2.3061,2.305,2.2998,2.3011,2.3007,2.2991,2.2991,2.2961,2.2956,2.2946,2.2905,2.2896,2.2878,2.2904,2.28,2.2797,2.2795,2.2789,2.2785,2.2782,0,0,0,0,0,2.3117,2.3088,2.3088,2.3079,2.3032,2.2997,2.2991,2.298,2.2989,2.2974,2.2958,2.2957,2.2886,2.2901,2.2892,2.2872,2.2801,2.2798,2.2796,2.279,2.2786,2.2782,0,0,0,0,0,0,2.3112,2.3084,2.3084,2.3045,2.3024,2.2997,2.2977,2.2976,2.2951,2.2952,2.2939,2.2932,2.2894,2.2879,2.2896,2.2832,2.2844,2.284,2.2843,2.2839,2.2836,2.284,2.2901,0,0,0,0,0,2.3107,2.3082,2.3058,2.3026,2.3016,2.2999,2.2983,2.2977,2.2953,2.2944,2.2925,2.2902,2.2874,2.2856,2.2829,2.2787,2.278,2.2769,2.2766,2.2764,2.2759,2.2736,2.2731,2.2786,2.2786,2.2786,0,0,2.3095,2.3077,2.3062,2.3025,2.3008,2.2981,2.2991,2.2962,2.2942,2.2939,2.2903,2.2888,2.2861,2.2821,2.2802,2.2807,2.2743,2.276,2.2759,2.2756,2.2733,2.2728,2.2723,2.2784,2.2785,2.2785,0,0,2.306,2.3044,2.3016,2.2999,2.2973,2.2962,2.2955,2.2928,2.2919,2.2883,2.288,2.2855,2.2808,2.2788,2.2772,2.2731,2.2729,2.2722,2.2705,2.2683,2.2678,2.2674,2.2659,2.2654,2.2719,2.2719,2.2719,0,2.3048,2.301,2.3001,2.2973,2.2956,2.2954,2.2924,2.2908,2.2874,2.2862,2.2869,2.281,2.2791,2.2747,2.2737,2.2724,2.2715,2.2725,2.268,2.2676,2.2672,2.2657,2.2652,2.2718,2.2718,2.2718,2.2718,0,2.2996,2.2969,2.2949,2.2918,2.29,2.2871,2.2857,2.2839,2.2834,2.2822,2.2785,2.2763,2.2731,2.272,2.2715,2.2675,2.2679,2.2683,2.2695,2.2666,2.2652,2.2646,2.2717,2.2717,2.2717,2.2718,0,0,2.2955,2.2921,2.2913,2.29,2.2872,2.285,2.2821,2.2792,2.2776,2.2753,2.2728,2.2689,2.2692,2.2674,2.2667,2.2647,2.2615,2.2653,2.2653,2.2647,2.2569,2.2566,2.2559,2.2614,2.2613,2.2612,2.2571,0,2.2916,2.2866,2.2858,2.2813,2.2788,2.2786,2.2761,2.274,2.2728,2.2704,2.269,2.2662,2.267,2.2659,2.2639,2.2623,2.2599,2.2626,2.2589,2.2588,2.2596,2.2552,2.2548,2.251,2.2565,2.2565,2.2564,0,2.2864,2.2842,2.2795,2.2771,2.276,2.2738,2.271,2.2688,2.2664,2.2657,2.2637,2.2632,2.2601,2.2615,2.2571,2.259,2.2574,2.2564,2.2563,2.2558,2.2574,2.2545,2.2498,2.2492,2.2555,2.2556,2.2556,0,2.2839,2.2796,2.2763,2.2751,2.2722,2.2707,2.2694,2.2671,2.2654,2.263,2.2619,2.2591,2.2575,2.2553,2.254,2.2552,2.2497,2.251,2.2489,2.249,2.2477,2.2478,2.2426,2.2468,2.2469,2.2469,2.2469,0,2.2796,2.2767,2.2751,2.2731,2.2698,2.2689,2.2657,2.2644,2.2624,2.26,2.2596,2.2573,2.2559,2.2534,2.2523,2.2488,2.2481,2.2474,2.2471,2.2474,2.2475,2.2463,2.2465,2.2467,2.2467,2.2468,2.2468,0,2.2761,2.275,2.2713,2.2689,2.2683,2.266,2.2639,2.2618,2.2607,2.2577,2.2569,2.255,2.2521,2.2506,2.2469,2.2462,2.2423,2.2422,2.2431,2.243,2.241,2.2411,2.2347,2.2338,2.2388,2.2387,2.2387,0,2.2734,2.2713,2.2687,2.2672,2.2659,2.2633,2.2617,2.2606,2.2588,2.2561,2.2543,2.2514,2.249,2.2442,2.2425,2.2396,2.2394,2.2374,2.239,2.2393,2.2393,2.2394,2.2392,2.2371,2.237,2.237,2.2369,0,2.2688,2.2683,2.266,2.2635,2.2615,2.2594,2.2574,2.2561,2.2547,2.2527,2.2498,2.2479,2.2442,2.2412,2.2383,2.2368,2.2366,2.2365,2.2358,2.236,2.2366,2.2362,2.2422,2.2366,2.2366,2.2367,2.2367,2.2367,2.2656,2.2636,2.2615,2.2589,2.2573,2.2554,2.2534,2.2521,2.2497,2.2466,2.2462,2.243,2.2407,2.2367,2.2352,2.2326,2.2331,2.2321,2.2319,2.2317,2.2315,2.2371,2.2321,2.2321,2.2321,2.2321,2.2321,0,2.2608,2.2595,2.2572,2.2544,2.2523,2.2525,2.2502,2.2485,2.2458,2.2437,2.2414,2.238,2.2351,2.2332,2.2303,2.2286,2.2285,2.2279,2.228,2.2276,2.2313,2.2322,2.2281,2.2281,2.2281,2.2281,2.2281,2.2281,2.2581,2.2548,2.2542,2.2501,2.2487,2.2458,2.2445,2.2427,2.241,2.2373,2.235,2.2339,2.2318,2.2288,2.2262,2.2257,2.2246,2.224,2.2235,2.2269,2.2274,2.2278,2.2285,2.2238,2.2238,2.22,2.2199,2.2199]}]]